Temp
-7 -6 -7 -7 -7 -7 -7 -7 -6 -6 -6 -5 -5 -4 -5 -5 -5 -5 -5 -5 -5 -6 -6 -6 -6 -5 -6 -6 -6 -6 -6 -6 -7 -6 -5 -5 -5 -6 -6 -6 -6 -6 -6 -6 -6 -6 -6 -6 -6
-7 -7 -7 -7 -7 -7 -7 -7 -7 -7 -6 -6 -6 -5 -5 -4 -5 -5 -5 -5 -6 -6 -6 -6 -6 -6 -6 -6 -6 -6 -6 -7 -7 -7 -6 -6 -6 -6 -6 -6 -6 -6 -6 -6 -6 -5 -6 -6 -6
-8 -6 -6 -6 -6 -6 -7 -7 -7 -7 -7 -6 -6 -6 -6 -5 -5 -5 -6 -6 -6 -6 -6 -6 -7 -6 -6 -6 -6 -6 -7 -7 -7 -7 -7 -7 -6 -6 -6 -6 -6 -6 -6 -6 -5 -5 -6 -6 -6
-6 -6 -6 -6 -6 -6 -7 -7 -7 -7 -7 -7 -7 -7 -7 -6 -6 -6 -6 -6 -6 -6 -6 -6 -6 -7 -7 -6 -6 -6 -7 -7 -7 -7 -7 -7 -6 -6 -6 -6 -6 -6 -6 -6 -6 -6 -6 -6 -6
-6 -6 -6 -6 -6 -6 -7 -7 -6 -7 -7 -7 -7 -7 -7 -6 -6 -6 -6 -6 -6 -6 -6 -6 -7 -7 -6 -7 -6 -6 -6 -7 -7 -7 -7 -7 -7 -7 -7 -7 -6 -6 -6 -6 -6 -6 -6 -6 -6
-6 -7 -6 -6 -7 -7 -7 -7 -7 -7 -7 -7 -7 -7 -7 -6 -6 -6 -6 -6 -6 -6 -6 -7 -7 -7 -7 -6 -7 -7 -7 -7 -7 -7 -8 -7 -7 -7 -7 -7 -7 -7 -6 -6 -6 -6 -6 -6 -6
-6 -6 -6 -7 -7 -6 -7 -7 -7 -7 -7 -7 -7 -7 -7 -7 -6 -6 -6 -6 -6 -6 -6 -6 -7 -7 -7 -7 -7 -7 -7 -6 -7 -7 -8 -8 -8 -8 -7 -7 -7 -7 -7 -6 -6 -6 -6 -6 -6
-6 -6 -6 -8 -8 -7 -7 -7 -7 -7 -7 -7 -7 -7 -8 -7 -7 -7 -7 -6 -6 -6 -6 -7 -7 -7 -7 -7 -7 -7 -7 -7 -7 -7 -8 -8 -8 -8 -8 -7 -7 -7 -7 -7 -6 -6 -6 -6 -6
-5 -5 -5 -7 -8 -8 -7 -7 -7 -8 -8 -7 -7 -7 -8 -7 -7 -7 -7 -7 -7 -7 -7 -8 -7 -8 -8 -8 -8 -7 -8 -7 -7 -8 -8 -8 -8 -8 -8 -8 -7 -7 -7 -7 -7 -7 -7 -7 -6
-5 -4 -4 -5 -7 -7 -7 -8 -7 -7 -8 -8 -7 -7 -8 -7 -8 -7 -7 -7 -7 -7 -7 -8 -8 -8 -8 -8 -8 -8 -8 -8 -8 -8 -8 -8 -8 -8 -9 -9 -8 -8 -7 -7 -7 -7 -7 -7 -7
-6 -5 -5 -6 -6 -6 -7 -7 -7 -7 -7 -8 -7 -8 -8 -8 -8 -8 -8 -7 -7 -7 -7 -8 -8 -8 -8 -8 -7 -7 -8 -8 -8 -8 -7 -8 -8 -8 -9 -9 -8 -8 -8 -8 -8 -7 -8 -7 -7
-6 -5 -6 -6 -6 -6 -7 -7 -8 -7 -8 -8 -7 -7 -8 -8 -8 -8 -8 -8 -7 -7 -8 -8 -8 -8 -8 -8 -8 -8 -8 -8 -8 -8 -8 -9 -8 -8 -8 -9 -9 -8 -8 -8 -8 -8 -8 -8 -7
-6 -6 -6 -7 -6 -6 -7 -7 -7 -8 -8 -8 -7 -7 -7 -8 -8 -8 -8 -8 -8 -8 -8 -8 -8 -8 -9 -9 -8 -8 -8 -9 -9 -9 -9 -9 -9 -8 -8 -8 -9 -9 -8 -9 -9 -8 -8 -8 -8
-6 -6 -7 -7 -6 -7 -8 -7 -7 -8 -7 -8 -8 -7 -7 -8 -8 -8 -8 -8 -8 -8 -8 -9 -9 -9 -9 -9 -9 -9 -9 -9 -9 -9 -9 -9 -9 -9 -9 -9 -9 -9 -8 -9 -9 -9 -8 -8 -8
-6 -7 -7 -7 -7 -7 -7 -7 -8 -8 -8 -8 -8 -8 -8 -7 -7 -8 -8 -9 -8 -8 -8 -9 -9 -9 -9 -9 -9 -9 -9 -9 -9 -10 -10 -10 -10 -10 -10 -9 -9 -9 -9 -8 -9 -10 -9 -8 -8
-6 -7 -7 -7 -6 -6 -7 -8 -8 -8 -8 -8 -8 -8 -8 -8 -8 -8 -8 -9 -9 -9 -9 -8 -9 -9 -9 -9 -9 -10 -10 -9 -9 -9 -10 -10 -10 -10 -10 -10 -9 -9 -9 -9 -9 -10 -10 -8 -8
-7 -8 -7 -7 -7 -7 -7 -7 -8 -8 -8 -8 -8 -8 -8 -8 -8 -8 -8 -9 -9 -9 -9 -9 -9 -9 -10 -10 -10 -10 -10 -10 -10 -10 -10 -10 -10 -10 -10 -10 -10 -10 -10 -9 -9 -9 -10 -9 -8
-8 -7 -7 -7 -7 -8 -8 -8 -8 -8 -9 -9 -9 -9 -9 -8 -7 -8 -8 -7 -8 -9 -9 -9 -9 -9 -10 -10 -10 -10 -10 -10 -10 -10 -10 -10 -10 -10 -10 -10 -9 -10 -10 -10 -10 -10 -10 -10 -9
-7 -8 -8 -7 -7 -8 -8 -8 -8 -8 -8 -8 -9 -9 -9 -9 -8 -8 -8 -8 -8 -8 -9 -9 -9 -10 -9 -10 -10 -10 -10 -10 -10 -10 -10 -10 -10 -10 -10 -10 -10 -10 -10 -10 -10 -10 -10 -9 -9
-7 -7 -7 -7 -7 -8 -8 -8 -8 -8 -8 -8 -9 -9 -9 -9 -9 -8 -8 -8 -8 -8 -8 -8 -9 -9 -9 -10 -10 -10 -10 -10 -9 -10 -9 -9 -10 -10 -10 -10 -10 -10 -9 -9 -10 -10 -10 -10 -10
-7 -8 -7 -7 -8 -8 -8 -8 -7 -7 -8 -8 -8 -9 -9 -9 -9 -9 -8 -8 -8 -8 -8 -8 -8 -9 -9 -9 -9 -10 -10 -10 -9 -9 -10 -9 -10 -10 -10 -10 -10 -10 -9 -10 -9 -10 -10 -10 -9
-6 -7 -7 -7 -8 -8 -8 -8 -7 -7 -8 -8 -8 -9 -9 -9 -9 -9 -8 -8 -8 -8 -8 -8 -8 -8 -9 -9 -10 -10 -10 -10 -10 -9 -9 -9 -10 -10 -10 -10 -10 -10 -10 -10 -10 -9 -9 -10 -10
-6 -6 -7 -6 -7 -7 -8 -7 -6 -7 -7 -8 -8 -8 -9 -9 -9 -9 -9 -9 -8 -7 -7 -7 -8 -8 -8 -8 -9 -9 -9 -9 -9 -9 -9 -9 -9 -9 -9 -9 -9 -9 -10 -10 -10 -9 -9 -9 -9
-6 -6 -6 -7 -6 -6 -7 -7 -6 -6 -7 -7 -8 -8 -9 -9 -10 -9 -9 -9 -9 -9 -8 -7 -7 -8 -8 -8 -8 -8 -8 -8 -8 -8 -8 -8 -8 -9 -9 -9 -9 -9 -9 -9 -10 -10 -10 -9 -9
-6 -6 -7 -7 -7 -7 -7 -7 -7 -7 -7 -7 -7 -8 -8 -9 -10 -9 -9 -9 -9 -9 -9 -8 -8 -8 -8 -7 -7 -8 -8 -8 -8 -8 -8 -7 -8 -8 -8 -8 -8 -9 -9 -9 -9 -9 -9 -9 -9
-7 -7 -7 -7 -7 -7 -7 -7 -7 -7 -8 -8 -8 -8 -8 -9 -9 -9 -9 -9 -9 -9 -9 -8 -8 -8 -8 -8 -8 -8 -7 -7 -8 -8 -7 -8 -8 -8 -8 -8 -8 -8 -9 -9 -9 -9 -9 -9 -9
-6 -7 -7 -7 -7 -7 -6 -6 -6 -7 -8 -7 -8 -8 -8 -9 -9 -10 -10 -9 -9 -9 -9 -9 -9 -8 -8 -7 -7 -8 -9 -9 -8 -8 -8 -8 -8 -8 -8 -8 -8 -8 -8 -8 -9 -9 -9 -9 -9
-7 -6 -7 -7 -7 -7 -6 -6 -6 -6 -7 -7 -7 -8 -8 -8 -9 -9 -9 -9 -8 -8 -8 -9 -9 -8 -8 -8 -8 -7 -8 -8 -8 -8 -8 -8 -8 -8 -8 -8 -8 -8 -8 -8 -8 -8 -8 -9 -9
-7 -6 -6 -7 -7 -7 -6 -6 -6 -6 -6 -7 -7 -7 -8 -9 -9 -9 -8 -8 -8 -8 -9 -9 -9 -8 -8 -8 -8 -8 -8 -8 -8 -8 -9 -9 -9 -9 -9 -9 -9 -9 -8 -8 -8 -8 -8 -8 -9
-7 -6 -7 -7 -7 -7 -7 -7 -7 -7 -7 -7 -7 -8 -9 -9 -8 -8 -9 -9 -8 -8 -9 -9 -9 -8 -8 -8 -9 -9 -9 -9 -9 -9 -9 -9 -9 -9 -9 -9 -9 -9 -9 -8 -8 -8 -8 -8 -9
Height
5903 5900 5899 5898 5901 5895 5892 5890 5890 5889 5888 5884 5882 5881 5880 5880 5881 5884 5883 5884 5884 5884 5885 5886 5888 5890 5892 5893 5895 5896 5899 5902 5904 5910 5912 5913 5916 5919 5921 5922 5922 5926 5927 5928 5929 5932 5933 5933 5935
5905 5904 5903 5902 5900 5897 5894 5892 5891 5892 5888 5886 5884 5882 5881 5882 5883 5884 5884 5884 5883 5884 5887 5887 5888 5890 5893 5894 5896 5899 5902 5903 5905 5910 5915 5916 5914 5920 5922 5924 5924 5927 5929 5931 5931 5934 5935 5935 5935
5907 5907 5906 5903 5902 5899 5897 5895 5894 5893 5892 5889 5887 5884 5885 5886 5885 5885 5884 5884 5885 5887 5888 5889 5892 5892 5894 5895 5897 5900 5902 5905 5907 5910 5915 5916 5917 5920 5923 5925 5925 5928 5931 5932 5933 5936 5937 5937 5937
5909 5909 5909 5907 5904 5903 5900 5899 5897 5896 5895 5895 5891 5891 5890 5888 5887 5886 5886 5886 5887 5888 5888 5890 5891 5893 5895 5897 5899 5901 5903 5906 5908 5911 5915 5918 5918 5920 5924 5926 5927 5929 5931 5934 5935 5936 5938 5939 5939
5911 5912 5910 5909 5908 5906 5904 5903 5901 5900 5899 5899 5895 5896 5894 5891 5889 5888 5887 5887 5889 5890 5890 5891 5892 5894 5896 5897 5899 5901 5903 5905 5909 5911 5916 5917 5919 5922 5925 5927 5928 5930 5933 5934 5935 5937 5938 5940 5940
5912 5913 5912 5912 5910 5909 5908 5907 5905 5903 5902 5901 5900 5900 5899 5895 5892 5891 5891 5891 5891 5891 5891 5891 5892 5894 5896 5897 5899 5901 5903 5905 5908 5909 5913 5916 5918 5924 5927 5928 5928 5931 5934 5935 5936 5937 5939 5942 5942
5914 5915 5913 5911 5910 5912 5912 5910 5908 5906 5905 5904 5904 5903 5902 5899 5895 5894 5893 5893 5892 5891 5891 5891 5892 5895 5896 5898 5900 5902 5904 5907 5908 5910 5911 5917 5921 5922 5926 5928 5927 5931 5934 5936 5937 5938 5939 5942 5942
5915 5917 5915 5912 5912 5912 5913 5912 5911 5909 5908 5907 5906 5905 5905 5903 5900 5898 5897 5895 5893 5893 5892 5890 5891 5894 5897 5898 5900 5902 5904 5907 5909 5910 5913 5917 5920 5923 5926 5926 5928 5930 5934 5936 5937 5939 5939 5942 5942
5918 5918 5914 5913 5913 5913 5915 5914 5913 5911 5909 5909 5908 5908 5907 5906 5904 5902 5900 5898 5896 5893 5893 5892 5893 5895 5897 5899 5900 5903 5904 5906 5907 5911 5913 5918 5919 5923 5924 5926 5929 5931 5934 5936 5938 5939 5939 5941 5942
5920 5920 5915 5914 5914 5914 5916 5916 5915 5914 5912 5911 5911 5910 5909 5908 5907 5905 5903 5901 5899 5898 5897 5894 5897 5897 5900 5901 5902 5903 5905 5905 5907 5910 5913 5915 5918 5920 5923 5925 5927 5931 5933 5935 5937 5938 5939 5939 5942
5922 5922 5918 5916 5916 5917 5917 5918 5917 5915 5914 5913 5913 5912 5912 5911 5910 5908 5907 5905 5902 5899 5898 5898 5900 5901 5902 5902 5903 5904 5906 5908 5911 5911 5913 5914 5914 5917 5919 5923 5926 5929 5932 5933 5936 5937 5939 5939 5941
5922 5922 5919 5917 5915 5918 5919 5919 5918 5917 5916 5915 5916 5915 5914 5913 5912 5912 5910 5909 5906 5904 5904 5904 5904 5904 5904 5904 5905 5906 5907 5909 5910 5912 5915 5917 5918 5918 5918 5921 5924 5926 5928 5931 5933 5935 5937 5939 5940
5922 5922 5920 5919 5919 5921 5920 5921 5921 5920 5918 5917 5917 5917 5917 5916 5915 5914 5913 5913 5912 5910 5909 5908 5908 5907 5907 5907 5906 5908 5910 5912 5913 5914 5914 5915 5916 5920 5920 5920 5922 5923 5924 5927 5928 5930 5934 5935 5938
5922 5922 5921 5922 5923 5923 5923 5924 5924 5923 5922 5920 5919 5918 5918 5918 5917 5916 5916 5915 5915 5915 5913 5912 5912 5911 5911 5911 5910 5911 5913 5914 5915 5917 5916 5917 5917 5917 5917 5918 5919 5920 5922 5923 5925 5926 5930 5933 5934
5922 5923 5924 5925 5926 5925 5925 5927 5925 5925 5925 5922 5921 5920 5919 5919 5919 5919 5918 5917 5917 5917 5917 5916 5915 5915 5915 5914 5914 5915 5915 5916 5917 5917 5917 5917 5917 5916 5915 5917 5917 5917 5919 5921 5923 5924 5928 5930 5932
5923 5924 5925 5926 5926 5927 5927 5929 5927 5927 5927 5925 5924 5923 5922 5920 5919 5919 5919 5918 5917 5917 5918 5918 5918 5918 5918 5917 5918 5917 5917 5918 5918 5917 5916 5916 5917 5918 5917 5917 5915 5915 5916 5917 5919 5921 5925 5927 5929
5924 5924 5925 5925 5926 5926 5927 5929 5930 5929 5929 5929 5927 5927 5925 5922 5921 5919 5919 5919 5919 5918 5918 5918 5919 5919 5920 5919 5919 5919 5919 5919 5918 5918 5918 5917 5917 5917 5916 5915 5915 5914 5916 5918 5918 5918 5920 5924 5926
5922 5925 5926 5926 5927 5926 5927 5929 5932 5931 5930 5931 5930 5928 5926 5923 5922 5919 5918 5918 5917 5918 5918 5917 5918 5919 5919 5920 5919 5919 5919 5919 5919 5919 5919 5918 5917 5917 5916 5915 5915 5915 5916 5916 5916 5917 5918 5919 5921
5922 5923 5924 5925 5925 5926 5927 5928 5931 5932 5931 5931 5930 5929 5927 5925 5923 5921 5919 5917 5917 5917 5917 5918 5917 5917 5918 5918 5919 5919 5918 5918 5918 5917 5917 5916 5916 5915 5914 5914 5914 5913 5913 5913 5913 5912 5912 5914 5917
5921 5921 5922 5923 5924 5924 5926 5927 5929 5931 5931 5930 5930 5929 5929 5927 5925 5922 5920 5919 5918 5917 5916 5916 5917 5917 5917 5917 5917 5917 5918 5917 5916 5916 5915 5914 5914 5914 5914 5914 5913 5912 5912 5912 5910 5910 5909 5910 5911
5920 5920 5920 5922 5922 5922 5922 5925 5927 5929 5930 5930 5929 5929 5929 5928 5926 5923 5921 5920 5919 5918 5917 5916 5916 5916 5917 5917 5916 5915 5915 5915 5914 5914 5914 5914 5913 5913 5912 5912 5911 5910 5909 5908 5908 5908 5907 5906 5905
5917 5918 5918 5920 5919 5920 5920 5921 5924 5926 5927 5928 5927 5927 5928 5928 5926 5923 5921 5919 5918 5917 5917 5917 5915 5914 5914 5914 5913 5914 5914 5913 5912 5911 5911 5912 5910 5909 5908 5908 5907 5906 5905 5905 5904 5903 5903 5901 5900
5917 5916 5917 5918 5918 5918 5918 5917 5920 5922 5924 5926 5925 5925 5925 5926 5925 5922 5919 5918 5917 5915 5914 5914 5913 5913 5912 5910 5909 5909 5910 5909 5907 5907 5906 5906 5905 5905 5903 5902 5902 5901 5900 5900 5899 5898 5896 5896 5896
5914 5914 5914 5915 5917 5917 5916 5916 5917 5919 5921 5922 5923 5923 5922 5923 5922 5921 5918 5917 5916 5915 5912 5911 5910 5909 5908 5907 5905 5904 5904 5903 5902 5902 5904 5902 5900 5900 5899 5896 5895 5895 5893 5893 5892 5890 5890 5889 5889
5911 5911 5912 5914 5914 5915 5913 5914 5916 5917 5918 5919 5920 5920 5919 5919 5919 5917 5915 5914 5913 5912 5911 5909 5908 5906 5905 5902 5901 5900 5898 5898 5898 5896 5895 5895 5893 5891 5890 5889 5888 5886 5885 5885 5882 5882 5879 5879 5878
5908 5909 5910 5910 5911 5912 5910 5910 5911 5912 5913 5915 5916 5916 5916 5916 5915 5913 5912 5911 5910 5909 5906 5903 5902 5901 5900 5898 5896 5894 5892 5892 5890 5889 5888 5887 5885 5883 5881 5880 5878 5877 5875 5874 5873 5873 5871 5867 5864
5905 5906 5908 5906 5907 5908 5909 5908 5908 5909 5909 5908 5910 5911 5911 5910 5908 5908 5908 5906 5904 5902 5900 5898 5897 5895 5893 5892 5891 5889 5886 5884 5882 5880 5879 5878 5876 5874 5872 5870 5868 5866 5865 5864 5862 5861 5861 5856 5856
5902 5903 5903 5903 5903 5903 5904 5905 5905 5905 5905 5904 5904 5904 5904 5903 5903 5903 5901 5900 5898 5895 5892 5890 5888 5886 5885 5885 5883 5881 5879 5877 5875 5873 5869 5867 5865 5863 5860 5859 5857 5855 5853 5852 5850 5850 5848 5846 5845
5899 5898 5899 5898 5900 5899 5900 5901 5901 5900 5900 5900 5899 5898 5898 5898 5897 5896 5895 5893 5891 5889 5886 5882 5879 5877 5876 5875 5874 5873 5870 5866 5863 5860 5859 5857 5855 5852 5850 5848 5846 5843 5841 5839 5837 5837 5835 5834 5833
5893 5894 5894 5893 5894 5894 5894 5897 5895 5894 5894 5894 5894 5893 5893 5892 5891 5890 5888 5885 5883 5880 5877 5874 5872 5871 5868 5865 5863 5860 5857 5853 5851 5849 5846 5844 5841 5839 5836 5834 5833 5831 5829 5826 5823 5822 5822 5822 5822
Wind_Speed
18 24 22 21 21 25 27 30 30 27 27 29 26 20 21 11 9 9 8 8 9 8 5 3 5 2 9 13 20 26 26 25 21 17 15 18 18 17 18 19 20 17 18 18 17 15 15 16 16
18 19 19 14 21 21 27 31 30 27 28 30 30 24 23 16 12 11 11 10 10 8 6 7 6 8 6 13 17 20 22 24 24 19 17 19 20 17 17 17 18 17 17 15 16 13 13 14 15
9 15 19 18 19 22 25 28 30 30 26 30 30 28 22 17 14 13 14 14 9 6 6 9 13 12 11 21 20 19 25 24 25 22 19 19 20 19 17 16 17 17 15 15 14 12 12 12 14
16 19 21 22 22 23 23 25 30 30 26 28 31 27 21 19 18 16 15 14 9 8 8 10 9 9 17 18 13 19 25 25 24 22 19 20 20 18 17 16 16 16 15 13 12 11 10 11 12
16 15 19 23 23 25 24 24 26 27 25 22 29 29 22 19 20 18 15 13 10 10 10 6 12 15 14 16 18 25 25 27 27 26 18 20 18 18 16 17 16 14 14 13 12 10 10 9 10
10 10 15 20 26 28 25 23 24 25 24 21 22 26 24 20 19 20 16 11 10 9 9 5 9 15 11 14 16 25 22 28 28 31 24 20 19 17 16 16 14 13 13 13 12 11 9 8 8
9 9 12 20 24 27 28 23 23 23 24 22 18 22 22 22 22 21 18 15 12 11 9 7 11 11 12 12 21 22 24 20 26 26 30 21 18 16 15 14 13 12 12 12 12 11 9 8 6
6 6 10 17 18 22 27 23 21 21 24 21 20 18 21 21 23 22 19 16 13 11 12 9 9 12 12 11 10 12 16 16 16 24 25 23 18 16 14 12 11 12 11 10 11 10 8 7 6
7 3 13 15 15 18 22 22 20 21 22 22 21 18 16 17 20 22 20 19 19 16 13 9 17 14 12 12 7 6 2 9 14 24 27 22 17 14 12 10 10 10 10 10 10 10 8 7 6
4 5 9 11 14 15 18 19 19 18 20 19 19 19 18 17 17 19 20 20 20 19 16 10 13 14 13 12 11 11 7 7 19 26 26 23 23 17 12 10 9 10 10 10 10 9 9 8 8
7 5 10 9 13 18 16 18 19 19 19 18 18 18 18 20 22 19 19 20 22 22 22 22 16 13 13 13 9 8 5 10 16 21 21 24 26 23 17 12 10 10 11 11 11 11 10 10 10
7 5 9 8 13 16 13 16 22 19 18 16 17 19 16 18 20 22 21 20 21 24 23 22 20 18 12 8 10 10 8 6 6 4 1 12 13 19 20 15 15 15 14 12 11 11 11 10 11
5 4 9 9 11 11 15 16 20 19 20 16 17 16 15 16 16 18 19 21 18 21 24 23 21 21 19 18 11 10 10 10 7 3 4 5 5 8 16 23 18 19 16 18 15 11 11 10 11
4 5 6 4 7 12 15 12 18 21 21 21 17 15 14 12 13 13 14 16 18 16 19 22 24 23 21 21 20 15 9 5 3 7 7 7 5 4 12 13 23 24 22 18 18 17 11 12 11
4 3 2 6 9 14 18 13 22 23 24 20 16 12 12 14 13 12 11 11 13 15 13 16 19 20 22 23 21 19 17 14 10 10 9 9 10 11 14 12 14 25 29 27 21 12 13 14 14
2 3 3 5 4 11 15 13 16 20 23 23 19 15 13 13 12 10 9 8 8 11 13 12 13 16 17 18 19 19 18 16 16 15 13 10 9 10 11 15 7 19 20 23 20 13 14 16 17
3 4 5 4 6 10 14 14 10 17 24 29 27 24 18 14 14 13 10 6 4 5 8 10 9 9 11 12 12 11 11 13 12 13 12 10 9 8 11 12 10 14 11 16 22 22 22 21 22
6 7 8 4 3 6 11 9 11 12 17 18 22 21 20 15 12 12 11 9 4 2 4 6 6 7 4 4 6 6 5 4 5 5 4 5 6 7 8 9 9 8 6 7 11 19 27 22 23
12 12 13 7 4 3 7 7 6 9 12 15 19 19 20 17 11 10 11 10 8 5 1 5 5 6 5 4 1 2 3 3 5 5 5 4 6 6 6 7 9 9 9 10 10 12 14 30 26
16 17 14 9 6 9 9 6 3 8 7 9 10 13 16 17 16 13 14 11 8 6 4 3 6 7 7 7 8 8 8 10 11 8 11 12 11 10 9 10 11 11 13 13 11 12 15 19 25
14 16 14 11 13 15 14 9 3 2 2 3 8 9 10 14 17 16 14 14 12 8 3 4 5 6 7 10 12 15 16 17 14 14 16 16 17 19 19 17 17 15 14 17 18 16 16 19 26
12 17 19 16 16 17 16 16 12 8 4 1 4 5 6 11 14 16 15 18 16 12 8 7 8 6 9 12 12 14 16 18 16 14 16 21 25 24 23 24 23 22 24 23 23 23 21 21 23
12 14 14 10 12 17 17 20 17 15 8 5 6 2 4 11 13 16 15 18 18 16 13 12 11 9 12 14 15 13 15 17 17 19 18 22 22 24 26 25 27 26 27 28 27 30 30 25 24
14 13 11 10 10 13 18 21 18 14 13 10 8 8 7 11 12 15 16 18 20 18 20 17 16 15 15 17 18 19 18 19 18 19 22 24 25 24 24 27 28 28 28 31 33 33 34 34 30
13 14 15 13 13 13 17 17 14 13 13 11 10 12 12 12 14 16 16 21 21 20 20 19 19 19 20 23 21 20 22 22 22 24 25 26 27 29 30 31 31 32 32 33 35 37 40 40 40
12 15 15 14 15 16 18 20 20 19 19 18 20 18 16 13 16 17 20 24 22 23 22 22 23 22 20 22 25 26 27 27 28 29 30 31 32 34 36 36 36 36 38 38 36 38 43 47 46
15 17 13 15 17 18 18 20 21 21 22 21 19 22 20 19 21 22 25 27 31 24 24 21 23 26 26 27 24 24 27 30 33 33 34 35 36 37 38 39 40 41 42 42 43 43 40 48 49
14 17 19 17 16 15 16 16 18 20 23 25 25 24 22 23 24 27 30 32 27 24 24 26 30 31 29 27 29 32 34 35 35 36 38 42 43 44 44 44 45 46 46 46 46 45 45 46 49
19 20 19 19 15 15 15 16 16 19 21 22 23 23 24 26 30 33 32 29 27 27 29 31 34 36 37 36 35 33 34 37 39 41 41 42 44 47 49 50 50 50 51 50 50 48 48 48 46
19 20 17 18 21 18 17 14 16 17 17 19 22 25 28 30 30 30 29 31 32 34 36 37 38 39 40 40 39 40 42 44 44 46 48 49 51 52 52 52 52 52 53 53 54 52 50 49 48
Wind_Direction
70 72 105 76 62 67 65 62 57 50 42 42 48 52 50 62 99 85 73 65 63 66 98 166 211 191 156 153 185 160 155 156 138 139 149 148 144 148 146 141 133 130 126 124 118 108 105 102 105
78 74 91 87 64 68 65 64 56 44 42 40 40 49 51 55 88 94 78 74 59 67 85 154 145 159 126 179 173 171 166 158 152 149 158 151 143 154 156 145 137 135 132 131 122 117 113 105 108
113 88 78 70 68 56 57 59 58 50 46 46 44 49 57 70 81 77 78 71 59 80 107 147 169 161 159 159 161 170 169 164 159 151 160 152 149 151 151 150 145 141 140 135 132 128 112 108 110
105 90 84 77 67 59 54 53 57 54 51 52 52 47 51 67 70 68 74 70 68 95 121 143 152 190 182 189 191 182 175 164 155 157 158 154 151 153 158 153 147 144 145 142 142 141 124 110 105
86 83 85 81 70 63 56 52 57 58 57 56 58 51 51 55 63 57 63 73 77 97 127 118 164 165 199 205 199 187 185 174 169 157 163 159 158 161 158 155 150 147 153 154 152 155 143 126 113
94 69 67 83 75 69 62 51 50 57 57 60 61 57 53 55 63 61 62 74 81 86 105 147 155 168 183 194 194 192 196 189 177 169 164 166 161 171 170 163 154 157 169 164 165 162 161 143 133
90 81 67 62 58 66 64 56 50 51 55 56 65 64 53 52 57 61 58 64 75 75 79 162 153 165 171 187 201 212 208 195 192 176 168 162 170 169 182 180 163 165 177 175 176 172 169 162 156
56 51 63 64 54 50 57 53 49 49 57 56 57 67 57 50 54 56 59 61 70 64 61 133 144 153 149 155 138 168 202 206 214 194 169 169 173 176 180 175 174 171 181 181 184 185 182 184 173
326 346 48 61 54 48 49 56 48 46 44 49 55 63 63 55 52 54 56 63 67 66 59 109 149 151 144 147 153 171 223 228 217 185 173 172 169 177 174 178 184 182 186 185 195 193 199 208 203
299 313 61 51 56 48 46 62 55 48 45 41 59 57 57 55 62 58 55 61 67 69 68 87 149 147 149 130 154 135 158 204 194 188 182 184 182 179 178 183 193 198 198 197 206 202 206 220 226
355 6 51 37 53 55 60 61 54 51 44 49 53 63 56 58 58 64 60 55 65 63 62 72 121 127 139 150 148 131 124 186 196 183 187 196 200 191 180 186 192 205 207 207 212 214 211 223 232
1 10 65 53 34 50 67 52 51 53 55 52 53 57 59 60 58 58 60 58 62 70 70 73 82 91 98 135 154 143 127 121 136 160 283 231 251 209 197 192 200 206 208 210 213 220 218 219 240
352 353 54 47 47 53 63 52 58 61 66 56 54 59 52 58 60 57 57 62 64 72 79 76 75 75 76 77 134 146 134 110 92 101 346 297 301 256 236 220 211 210 215 212 201 202 219 217 227
330 333 51 65 60 63 72 64 78 62 58 61 54 49 56 50 60 59 57 55 61 73 76 79 76 73 74 76 79 100 116 111 57 67 59 60 36 3 246 245 227 224 217 227 221 197 219 223 219
310 246 94 71 96 85 75 67 78 64 53 56 60 56 39 49 51 56 52 48 43 53 73 79 79 76 72 71 75 78 78 80 72 61 54 41 25 16 22 251 248 239 238 230 239 201 226 236 227
352 210 33 60 61 80 73 66 71 68 58 55 58 57 45 39 55 60 65 53 31 27 32 59 78 83 80 76 76 73 65 64 61 60 59 43 22 20 38 29 13 256 258 246 244 233 232 237 242
141 224 280 326 46 44 50 69 87 75 76 73 58 48 51 49 40 38 47 68 56 7 5 14 40 84 87 88 89 74 63 57 54 51 56 59 46 28 10 21 28 33 271 250 243 232 225 232 242
235 204 269 257 330 36 31 48 123 89 83 67 55 41 36 46 43 33 34 23 30 34 333 341 357 17 69 95 85 77 66 48 47 46 47 45 39 24 12 10 12 7 321 317 296 270 238 228 238
269 267 280 267 275 348 351 20 117 105 89 75 66 45 36 34 50 39 27 23 23 9 282 295 324 315 341 8 301 255 270 263 285 298 311 333 323 325 317 330 333 331 319 306 301 286 277 240 234
265 278 286 272 289 303 315 354 96 167 121 83 63 53 22 32 37 50 55 45 18 6 348 304 276 291 301 290 296 300 284 257 264 272 296 299 302 297 285 280 280 291 290 289 289 288 278 260 251
262 262 269 278 282 288 300 305 297 178 268 116 79 58 25 26 17 19 34 36 30 21 359 325 301 276 271 275 278 292 299 317 295 275 282 281 278 280 277 279 274 273 273 271 279 279 282 275 267
248 244 251 258 271 275 285 283 283 290 265 215 47 55 18 16 7 5 22 17 9 16 360 336 317 295 274 267 269 278 281 288 281 295 274 282 279 283 271 271 273 277 274 273 264 268 275 279 277
246 232 235 254 252 262 272 280 297 291 301 313 310 302 330 348 356 352 358 11 358 349 344 340 336 326 296 291 285 277 268 274 275 273 280 279 279 280 277 275 272 279 276 273 271 275 274 273 276
243 243 244 257 264 260 263 272 287 290 300 298 277 278 294 322 333 335 339 348 344 341 328 322 315 313 302 291 286 288 285 285 285 281 279 287 288 291 288 284 287 283 284 272 268 267 269 271 270
246 243 240 245 249 260 265 276 283 286 288 290 277 268 282 306 307 318 328 328 327 327 322 308 302 298 297 297 290 287 292 295 293 292 289 290 294 294 293 292 290 285 282 280 279 271 266 264 268
256 243 249 261 259 261 271 276 281 282 284 280 276 290 296 291 294 304 311 309 316 307 316 298 295 293 291 289 290 293 291 289 289 289 289 290 289 290 290 290 288 286 286 284 277 272 271 271 257
265 245 243 270 268 263 265 271 280 278 281 280 279 282 289 290 293 299 299 303 307 297 307 297 294 291 288 284 277 286 290 293 293 291 290 289 288 287 287 286 285 285 285 284 282 280 273 269 272
249 246 256 264 268 260 267 272 276 273 275 280 282 283 286 290 298 300 304 305 302 305 307 302 297 290 286 285 285 286 288 286 282 282 288 288 288 287 286 286 286 285 284 283 281 280 277 271 270
250 252 261 273 277 275 272 281 279 279 277 279 281 285 290 294 297 300 302 304 301 297 299 299 296 293 296 294 291 288 287 286 288 288 286 282 281 281 282 283 283 282 282 282 279 279 276 274 271
257 268 273 280 293 291 286 288 290 293 287 285 289 289 288 292 299 302 301 300 302 303 304 299 290 292 294 295 298 297 295 293 292 291 289 286 286 286 286 285 283 281 280 279 280 278 276 272 267